{"data":{"norad_id":66492,"epoch":"2026-09-20T21:29:47.919264Z","epoch_age_seconds":55102,"freshness":"FRESH","line1":"1 66492U 25263H   26263.89569351  .00014907  00000+0  55019-3 0  9993","line2":"2 66492  43.0031 328.2376 0003065 263.5155  96.5348 15.27574118 48752","mean_motion":15.27574118,"eccentricity":0.0003065,"inclination_deg":43.0031,"raan_deg":328.2376,"arg_perigee_deg":263.5155,"mean_anomaly_deg":96.5348,"bstar":0.00055019,"rev_number":4875,"period_min":94.267111692449,"perigee_km":480.96374998342,"apogee_km":485.16966785699,"semimajor_km":6861.2037089202,"source":"CELESTRAK","updated_at":"2026-09-21T09:00:35.920451Z"}}